| time (UTC) | temp F | wind direction | speed MPH | gust MPH | rain 1hr in | rain 24hr in | rain mn in | humidity % | barometer mb |
| 20260503235559 | 59 | 0.0 | 0.0 | 0.00 | 0.00 | 0.00 | 67 | 1019.4 | |
| 20260503234556 | 59 | 0.0 | 0.0 | 0.00 | 0.00 | 0.00 | 67 | 1019.4 | |
| 20260503233555 | 59 | 0.0 | 0.0 | 0.00 | 0.00 | 0.00 | 69 | 1019.3 | |
| 20260503232551 | 60 | 0.0 | 0.0 | 0.00 | 0.00 | 0.00 | 68 | 1019.3 | |
| 20260503231549 | 60 | 0.0 | 0.0 | 0.00 | 0.00 | 0.00 | 68 | 1019.0 | |
| 20260503230545 | 60 | 0.0 | 0.0 | 0.00 | 0.00 | 0.00 | 65 | 1019.0 | |
| 20260503225544 | 60 | 0.0 | 0.0 | 0.00 | 0.00 | 0.00 | 66 | 1019.0 | |
| 20260503224539 | 60 | 0.0 | 0.0 | 0.00 | 0.00 | 0.00 | 66 | 1018.9 | |
| 20260503223537 | 61 | 0.0 | 0.0 | 0.00 | 0.00 | 0.00 | 65 | 1018.8 | |
| 20260503222533 | 61 | 0.0 | 0.0 | 0.00 | 0.00 | 0.00 | 65 | 1018.8 | |
| 20260503221532 | 61 | 0.0 | 0.0 | 0.00 | 0.00 | 0.00 | 65 | 1018.7 | |
| 20260503220528 | 61 | 0.0 | 0.0 | 0.00 | 0.00 | 0.00 | 65 | 1018.8 | |
| 20260503215527 | 60 | 0.0 | 0.0 | 0.00 | 0.00 | 0.00 | 67 | 1018.8 | |
| 20260503214522 | 61 | 0.0 | 0.0 | 0.00 | 0.00 | 0.00 | 65 | 1018.7 | |
| 20260503213521 | 61 | 0.0 | 0.0 | 0.00 | 0.00 | 0.00 | 64 | 1018.7 | |
| 20260503212516 | 61 | 0.0 | 0.0 | 0.00 | 0.00 | 0.00 | 65 | 1018.7 | |
| 20260503211613 | 61 | 0.0 | 0.0 | 0.00 | 0.00 | 0.00 | 65 | 1018.6 | |
| 20260503210611 | 61 | 0.0 | 0.0 | 0.00 | 0.00 | 0.00 | 63 | 1018.5 | |
| 20260503205608 | 62 | 0.0 | 0.0 | 0.00 | 0.00 | 0.00 | 66 | 1018.4 | |
| 20260503204606 | 62 | 0.0 | 0.0 | 0.00 | 0.00 | 0.00 | 65 | 1018.4 | |
| 20260503203605 | 63 | 0.0 | 0.0 | 0.00 | 0.00 | 0.00 | 64 | 1018.3 | |
| 20260503202555 | 64 | 0.0 | 0.0 | 0.00 | 0.00 | 0.00 | 61 | 1018.3 | |
| 20260503201555 | 64 | 0.0 | 0.0 | 0.00 | 0.00 | 0.00 | 60 | 1018.3 | |
| 20260503200550 | 64 | 0.0 | 0.0 | 0.00 | 0.00 | 0.00 | 59 | 1018.2 | |
| 20260503195548 | 64 | 0.0 | 0.0 | 0.00 | 0.00 | 0.00 | 58 | 1018.3 | |
| 20260503194544 | 65 | 0.0 | 0.0 | 0.00 | 0.00 | 0.00 | 57 | 1018.2 | |
| 20260503193541 | 66 | 0.0 | 0.0 | 0.00 | 0.00 | 0.00 | 55 | 1018.2 | |
| 20260503192539 | 66 | 0.0 | 0.0 | 0.00 | 0.00 | 0.00 | 54 | 1018.2 | |
| 20260503191536 | 66 | 0.0 | 0.0 | 0.00 | 0.00 | 0.00 | 54 | 1018.0 | |
| 20260503190533 | 68 | 0.0 | 0.0 | 0.00 | 0.00 | 0.00 | 51 | 1018.0 | |
| 20260503185532 | 69 | 0.0 | 0.0 | 0.00 | 0.00 | 0.00 | 50 | 1018.0 | |
| 20260503184527 | 70 | 0.0 | 0.0 | 0.00 | 0.00 | 0.00 | 48 | 1017.9 | |
| 20260503183526 | 70 | 0.0 | 0.0 | 0.00 | 0.00 | 0.00 | 47 | 1017.8 | |
| 20260503182522 | 71 | 0.0 | 0.0 | 0.00 | 0.00 | 0.00 | 46 | 1017.7 | |
| 20260503181519 | 72 | 293 | 0.0 | 2.0 | 0.00 | 0.00 | 0.00 | 44 | 1017.6 |
| 20260503180516 | 73 | 293 | 1.0 | 2.0 | 0.00 | 0.00 | 0.00 | 43 | 1017.7 |
| 20260503175613 | 73 | 0.0 | 2.0 | 0.00 | 0.00 | 0.00 | 43 | 1017.7 | |
| 20260503174611 | 74 | 225 | 0.0 | 2.0 | 0.00 | 0.00 | 0.00 | 43 | 1017.7 |
| 20260503173610 | 75 | 307 | 1.0 | 4.0 | 0.00 | 0.00 | 0.00 | 40 | 1017.6 |
| 20260503172607 | 76 | 322 | 2.0 | 4.0 | 0.00 | 0.00 | 0.00 | 41 | 1017.6 |
| 20260503171602 | 76 | 252 | 3.0 | 7.0 | 0.00 | 0.00 | 0.00 | 41 | 1017.5 |
| 20260503170600 | 77 | 287 | 1.0 | 9.0 | 0.00 | 0.00 | 0.00 | 40 | 1017.5 |
| 20260503150527 | 81 | 274 | 2.0 | 4.0 | 0.00 | 0.00 | 0.00 | 36 | 1017.8 |
| 20260503130553 | 81 | 261 | 1.0 | 4.0 | 0.00 | 0.00 | 0.00 | 37 | 1019.4 |
| 20260503110613 | 82 | 170 | 2.0 | 6.0 | 0.00 | 0.00 | 0.00 | 38 | 1020.2 |
| 20260503081525 | 75 | 72 | 1.0 | 4.0 | 0.00 | 0.00 | 0.00 | 46 | 1021.2 |
| 20260503080519 | 72 | 285 | 0.0 | 4.0 | 0.00 | 0.00 | 0.00 | 51 | 1021.2 |
| 20260503072606 | 68 | 270 | 1.0 | 4.0 | 0.00 | 0.00 | 0.00 | 54 | 1021.3 |
| 20260503071603 | 67 | 256 | 0.0 | 4.0 | 0.00 | 0.00 | 0.00 | 56 | 1021.3 |
| 20260503070600 | 65 | 284 | 1.0 | 2.0 | 0.00 | 0.00 | 0.00 | 54 | 1021.4 |
| 20260503054522 | 58 | 0.0 | 0.0 | 0.00 | 0.00 | 0.00 | 63 | 1021.4 | |
| 20260503053518 | 57 | 0.0 | 0.0 | 0.00 | 0.00 | 0.00 | 64 | 1021.4 | |
| 20260503052609 | 55 | 0.0 | 0.0 | 0.00 | 0.00 | 0.00 | 66 | 1021.3 | |
| 20260503051607 | 52 | 0.0 | 0.0 | 0.00 | 0.00 | 0.00 | 74 | 1021.4 | |
| 20260503050559 | 51 | 0.0 | 0.0 | 0.00 | 0.00 | 0.00 | 77 | 1021.4 | |
| 20260503045555 | 49 | 0.0 | 0.0 | 0.00 | 0.00 | 0.00 | 80 | 1021.4 | |
| 20260503044548 | 48 | 0.0 | 0.0 | 0.00 | 0.00 | 0.00 | 82 | 1021.4 | |
| 20260503043546 | 48 | 0.0 | 0.0 | 0.00 | 0.00 | 0.00 | 81 | 1021.3 | |
| 20260503042541 | 48 | 0.0 | 0.0 | 0.00 | 0.00 | 0.00 | 80 | 1021.4 | |
| 20260503041532 | 47 | 0.0 | 0.0 | 0.00 | 0.00 | 0.00 | 83 | 1021.4 | |
| 20260503040531 | 47 | 0.0 | 0.0 | 0.00 | 0.00 | 0.00 | 83 | 1021.2 | |
| 20260503035522 | 48 | 0.0 | 0.0 | 0.00 | 0.00 | 0.00 | 82 | 1021.2 | |
| 20260503034520 | 48 | 0.0 | 0.0 | 0.00 | 0.00 | 0.00 | 83 | 1021.3 | |
| 20260503033613 | 48 | 0.0 | 0.0 | 0.00 | 0.00 | 0.00 | 84 | 1021.1 | |
| 20260503032608 | 48 | 0.0 | 0.0 | 0.00 | 0.00 | 0.00 | 81 | 1021.1 | |
| 20260503031605 | 48 | 0.0 | 0.0 | 0.00 | 0.00 | 0.00 | 81 | 1021.2 | |
| 20260503030558 | 48 | 0.0 | 0.0 | 0.00 | 0.00 | 0.00 | 81 | 1021.3 | |
| 20260503025554 | 49 | 0.0 | 0.0 | 0.00 | 0.00 | 0.00 | 81 | 1021.5 | |
| 20260503024543 | 47 | 0.0 | 0.0 | 0.00 | 0.00 | 0.00 | 84 | 1021.4 | |
| 20260503023535 | 48 | 0.0 | 0.0 | 0.00 | 0.00 | 0.00 | 83 | 1021.4 | |
| 20260503022532 | 47 | 0.0 | 0.0 | 0.00 | 0.00 | 0.00 | 83 | 1021.5 | |
| 20260503021529 | 48 | 0.0 | 0.0 | 0.00 | 0.00 | 0.00 | 83 | 1021.5 | |
| 20260503020523 | 48 | 0.0 | 0.0 | 0.00 | 0.00 | 0.00 | 83 | 1021.5 | |
| 20260503015520 | 48 | 0.0 | 0.0 | 0.00 | 0.00 | 0.00 | 82 | 1021.5 | |
| 20260503014610 | 48 | 0.0 | 0.0 | 0.00 | 0.00 | 0.00 | 83 | 1021.4 | |
| 20260503013607 | 48 | 0.0 | 0.0 | 0.00 | 0.00 | 0.00 | 84 | 1021.4 | |
| 20260503012559 | 48 | 0.0 | 0.0 | 0.00 | 0.00 | 0.00 | 84 | 1021.5 | |
| 20260503011556 | 49 | 0.0 | 0.0 | 0.00 | 0.00 | 0.00 | 83 | 1021.6 | |
| 20260503010553 | 49 | 0.0 | 0.0 | 0.00 | 0.00 | 0.00 | 83 | 1021.6 | |
| 20260503005547 | 49 | 0.0 | 0.0 | 0.00 | 0.00 | 0.00 | 82 | 1021.6 | |
| 20260503004542 | 50 | 0.0 | 0.0 | 0.00 | 0.00 | 0.00 | 81 | 1021.8 | |
| 20260503003533 | 50 | 0.0 | 0.0 | 0.00 | 0.00 | 0.00 | 81 | 1021.8 | |
| 20260503002531 | 50 | 0.0 | 0.0 | 0.00 | 0.00 | 0.00 | 80 | 1021.9 | |
| 20260503001522 | 51 | 0.0 | 0.0 | 0.00 | 0.00 | 0.00 | 80 | 1022.0 | |
| 20260503000520 | 51 | 0.0 | 0.0 | 0.00 | 0.00 | 0.00 | 79 | 1022.2 |